User: anonymous   Login
Location: Claremont
(33.9858°S, 18.4575°E)
Time: 01:57:28
(UTC+00:00)
Language:

DASH - Orbit

View from above orbital plane
View from above orbital plane
View from above satellite
View from above satellite

Ground track
Ground track

The orbit data is extracted from the following two-line orbital elements,

1 27368U 02003B   21126.21138966  .00000276  00000-0  35264-3 0  9997
2 27368  28.2928 212.8030 7190426 283.3117  11.6687  2.33366577162100
Epoch (UTC): 06 May 2021 05:04:24
Eccentricity: 0.7190426
inclination: 28.2928°
perigee height: 367 km
apogee height: 34894 km
right ascension of ascending node: 212.8030°
argument of perigee: 283.3117°
revolutions per day: 2.33366577
mean anomaly at epoch: 11.6687°
orbit number at epoch: 16210

The dashed part of the orbit path shows where the satellite is in the earth's shadow,  

DLR